Weather in Molotitsy

Russia / Vladimir Oblast     55°45′02″N   41°57′18″E
temp.,
°C
wind,
m/s
gust,
m/s
humid.,
%
clouds,
%
prec.,
mm/h
press.,
hPa
HPBL,
m
1 august, sun
sun100:00+17wsw356645 0.0 100871
03:00+15w367124 0.0 101089
06:00+16wsw257183 0.0 1011138
09:00+22wsw3451100 0.0 1012564
12:00+26wsw4538100 0.0 10111622
15:00+28wsw4532100 0.0 10111909
18:00+27sw354160 0.0 1011909
21:00+21s386397 0.0 1010146
2 august, mon
mon200:00+19s237476 0.3 101137
03:00+17s347821 0.4 101158
06:00+18sw2474100 0.0 1010104
09:00+26sw3551100 0.0 1011493
12:00+27s355059 0.0 1010685
15:00+32ssw693475 0.1 10073085
18:00+22se1165100 1.5 100622
21:00+20sse4107995 1.6 1007221
3 august, tue
tue300:00+20sse413774 0.0 1005260
03:00+20ssw31078100 0.0 1004237
06:00+20ssw4117696 0.0 1005464
09:00+24sw5758100 0.0 1005696
12:00+23ssw696898 0.0 1006723
15:00+28wsw794662 0.0 10052008
18:00+24w59596 0.6 10071244
21:00+18wnw49875 0.6 1009440
4 august, wed
wed400:00+14wnw2497100 0.0 1011105
03:00+13w22953 0.0 101220
06:00+15w25905 0.0 1012166
09:00+21wnw345658 0.0 1013832
12:00+25wnw454173 0.0 10142304
15:00+26nw453265 0.0 10142691
18:00+23nw684615 0.0 1015675
21:00+17nnw227147 0.0 101626
5 august, thu
thu500:00+16n2274100 0.0 101726
03:00+16nne3562100 0.0 1018107
06:00+16n235598 0.0 1019115
09:00+20ne234211 0.0 1019432
12:00+25n22335 0.0 10181902
15:00+25nw3332100 0.0 10182331
18:00+24nne333650 0.0 1017752
21:00+18ene3447100 0.0 101775